Regional Weather Roundup
Issued by NWS Boston, MA

Current Version | Previous Version | Text Only | Print | Product List | Glossary Off
Versions: 1 2 3 4 5 6 7 8 9 10 11 12 13 14 15 16 17 18 19 20 21 22 23 24 25 26 27 28 29 30 31 32 33 34 35 36 37 38 39 40 41 42 43 44 45 46 47 48 49 50
321 ASUS41 KBOX 210110 RWRBOX REGIONAL WEATHER ROUNDUP NATIONAL WEATHER SERVICE BOSTON/NORTON MA 900 PM EDT SUN MAY 20 2018 NOTE: "FAIR" INDICATES FEW OR NO CLOUDS BELOW 12,000 FEET WITH NO SIGNIFICANT WEATHER AND/OR OBSTRUCTIONS TO VISIBILITY. MAZALL-210200- EASTERN MASSACHUSETTS CITY SKY/WX TMP DP RH WIND PRES REMARKS BOSTON MOCLDY 70 57 63 N6 29.94R BEVERLY FAIR 67 55 65 NW9 29.93R LAWRENCE FAIR 69 55 60 NW5 29.96R BEDFORD FAIR 64 57 78 NW6 29.94R BLUE HILL N/A 65 61 87 NW9 29.95R NORWOOD FAIR 69 61 75 CALM 29.94R MARSHFIELD CLOUDY 68 66 94 VRB3 29.93R PLYMOUTH CLOUDY 64 62 93 CALM 29.94R TAUNTON FOG 67 65 93 CALM 29.93R VSB 1/2 NEW BEDFORD MOCLDY 67 67 100 W5 29.93R $$ MAZALL-210200- CAPE COD AND THE ISLANDS CITY SKY/WX TMP DP RH WIND PRES REMARKS FALMOUTH CLOUDY 59 59 100 VRB3 29.94R HYANNIS CLOUDY 63 62 97 SW5 29.92R CHATHAM CLOUDY 59 59 100 CALM 29.93R PROVINCETOWN CLOUDY 59 58 96 SW7 29.94R NANTUCKET CLOUDY 54 54 100 W10 29.94S FOG MARTHAS VNYRD CLOUDY 58 57 97 W5 29.94R $$ MAZALL-210200- CENTRAL AND WESTERN MASSACHUSETTS CITY SKY/WX TMP DP RH WIND PRES REMARKS WORCESTER FAIR 64 56 75 NW7 29.98R FITCHBURG FAIR 64 59 83 N5 29.97R ORANGE MOCLDY 64 59 83 NW3 30.00R SPRINGFIELD MOCLDY 67 56 69 NW7 29.98R WESTFIELD FAIR 66 57 72 N7 30.00R NORTH ADAMS CLOUDY 64 53 67 W8 30.02R PITTSFIELD MOCLDY 61 53 75 W14 30.04R $$ RIZALL-210200- RHODE ISLAND CITY SKY/WX TMP DP RH WIND PRES REMARKS PROVIDENCE MOCLDY 71 62 73 NW3 29.95R NEWPORT CLOUDY 66 65 96 CALM 29.95R BLOCK ISLAND CLOUDY 63 59 87 W7 29.97R SMITHFIELD FAIR 63 60 90 MISG 29.97R WESTERLY FAIR 70 65 84 W3 29.97R $$ CTZALL-210200- CONNECTICUT CITY SKY/WX TMP DP RH WIND PRES REMARKS BRADLEY INTL MOCLDY 66 57 72 NW13 29.99R HARTFORD FAIR 70 57 63 NW10 29.98R BRIDGEPORT FAIR 73 59 61 NW12 29.99R DANBURY FAIR 68 56 65 NW5 30.02R GROTON FAIR 70 62 76 NW6 29.96R NEW HAVEN FAIR 72 58 61 NW6 29.98R CHESTER FAIR 70 59 68 NW9G15 29.99R MERIDEN FAIR 70 56 61 NW14 29.99R WILLIMANTIC MOCLDY 68 63 84 NW7 29.97R OXFORD FAIR 66 55 67 NW7 30.02R $$ MEZ002-015-021-024-NHZ003-005-008-011-012-014-VTZ005-008-210200- NORTHERN NEW ENGLAND CITY SKY/WX TMP DP RH WIND PRES REMARKS PORTLAND ME FAIR 65 50 58 W3 29.92R BANGOR ME FAIR 60 48 64 NW7 29.91R CONCORD NH FAIR 62 54 74 W6 29.96R MANCHESTER NH MOCLDY 69 54 58 NW7 29.95R NASHUA NH FAIR 66 56 70 NW6 29.97R PORTSMOUTH NH MOCLDY 64 53 68 W7 29.93R JAFFREY NH FAIR 60 59 96 CALM 30.00R KEENE NH CLOUDY 63 57 81 CALM 30.00R BURLINGTON VT FAIR 61 45 55 W5 30.04R MT. WASHINGTON FOG 37 37 100 NW43G54 N/A VSB 1/8 WCI 23 $$ NYZ052-076-210200- EASTERN NEW YORK CITY SKY/WX TMP DP RH WIND PRES REMARKS ALBANY FAIR 63 53 70 W8 30.05R NEW YORK CITY MOCLDY 71 57 61 NW13 30.00R $$ ANZALL-210200- MARINE OBSERVATIONS STATION/POSITION TIME TEMP WIND PRES VSBY WAVE AIR SEA DIR/SP/G HT/PER (UTC) (F) (DEG/KT/KT) (MB) (MI) (FT/S) BOSTON BUOY 0050 62 54 340/ 10/ 12 1013.3R 1/ 8 BUZZARDS BAY 0000 260/ 17/ 18 1013.7F NANTUCKET SOUND 2350 54 51 250/ 4/ 8 1013.4 1/ 4 MASS BAY-STELLWA 0004 61 53 1011.2R 3/ 8 ISLE OF SHOALS 0000 70 310/ 20/ 21 1012.3R S OF BLOCK IS 0043 49 N/A 5/ 7 $$ ......................KEY......................... SKY/WX - SKY CONDITION/PRESENT WEATHER TMP - TEMPERATURE IN FAHRENHEIT DWPT - DEWPOINT IN FAHRENHEIT RH - RELATIVE HUMIDITY IN PERCENT WIND - DIRECTION AND SPEED IN MPH PRES - MEAN SEA LEVEL PRESSURE IN INCHES OF HG WCI - WIND CHILL INDEX VSB - VISIBILITY IN MILES HX - HEAT INDEX TC - TEMPERATURE IN CELSIUS VRB - VARIABLE WIND DIRECTION N/A - NOT AVAILABLE

USA.gov is the U.S. government's official web portal to all federal, state and local government web resources and services.